Regional Weather Roundup
Issued by NWS

Home | Current Version | Previous Version | Graphics & Text | Print | Product List | Glossary Off
Versions: 1 2 3 4 5 6 7 8 9 10 11 12 13 14 15 16 17 18 19 20 21 22 23 24 25 26 27 28 29 30 31 32 33 34 35 36 37 38 39 40 41 42 43 44 45 46 47 48 49 50

000
ASUS43 KMKX 302100
RWRWI

WISCONSIN REGIONAL WEATHER ROUNDUP
NATIONAL WEATHER SERVICE MILWAUKEE/SULLIVAN WI
400 PM CDT TUE SEP 30 2014

NOTE: "FAIR" INDICATES FEW OR NO CLOUDS BELOW 12,000 FEET WITH NO
SIGNIFICANT WEATHER AND/OR OBSTRUCTIONS TO VISIBILITY.

WIZ001-002-006>008-014>016-023>028-302200-
NORTHWEST WISCONSIN

CITY           SKY/WX    TMP DP  RH WIND       PRES   REMARKS
SUPERIOR ARPT  PTSUNNY   51  44  75 E15       30.02F
ASHLAND        SUNNY     52  44  74 NE10      30.04F
HAYWARD        SUNNY     61  42  49 E8        29.98F
SIREN          PTSUNNY   58  43  57 E7        29.98F
CUMBERLAND     MOSUNNY   55  41  58 E7        29.98F
RICE LAKE      MOSUNNY   57  42  58 SE9       30.00F
CHETEK         MOSUNNY   57  44  62 SE3       30.00F
LADYSMITH      SUNNY     62  43  49 E3        30.01F
EAU CLAIRE     NOT AVBL
MENOMONIE      PTSUNNY   55  42  61 E8        29.99F
NEW RICHMOND   PTSUNNY   55  41  61 E8        29.97F
OSCEOLA        PTSUNNY   56  44  64 E10       29.99F
$$

WIZ003>005-009-010-017-018-302200-
NORTH CENTRAL WISCONSIN

CITY           SKY/WX    TMP DP  RH WIND       PRES   REMARKS
MANITOWISH WTR SUNNY     53  43  66 E6        30.03F
ARBOR VITAE    SUNNY     57  44  63 SE7       30.03F
WOODRUFF       SUNNY     57  44  63 SE7       30.03F
RHINELANDER    SUNNY     56  43  61 E7        30.04F
EAGLE RIVER    SUNNY     55  40  56 SE3       30.03F
LAND O LAKES   SUNNY     56  42  59 E6        30.04F
PHILLIPS       PTSUNNY   60  43  53 E6        30.00F
TOMAHAWK       SUNNY     57  42  57 CALM      30.03F
MEDFORD        SUNNY     57  43  60 SE6       30.01F
MERRILL        SUNNY     57  43  59 SE5       30.02F
$$

WIZ029-030-035-036-043>047-302200-
CENTRAL WISCONSIN

CITY           SKY/WX    TMP DP  RH WIND       PRES   REMARKS
WAUSAU         SUNNY     55  42  61 E9        30.01F
MOSINEE        SUNNY     54  45  71 SE7       30.03F
MARSHFIELD     SUNNY     55  43  63 SE7       30.01F
STEVENS POINT  SUNNY     51  41  69 SE7       30.04F
WAUPACA        CLOUDY    51  43  73 E7        30.06F
WAUTOMA        NOT AVBL
WISC RAPIDS    SUNNY     54  41  61 E10       30.04F
CAMP DOUGLAS   NOT AVBL
$$

WIZ011>013-019>022-031-037>040-048>050-302200-
NORTHEAST WISCONSIN

CITY           SKY/WX    TMP DP  RH WIND       PRES   REMARKS
ANTIGO         SUNNY     54  44  68 SE8       30.04F
SHAWANO        CLOUDY    51  43  75 CALM      30.07F
OCONTO         CLOUDY    49  42  75 CALM      30.06F
STURGEON BAY   NOT AVBL
GREEN BAY      CLOUDY    49  43  80 NE8       30.07F
MANITOWOC      NOT AVBL
APPLETON       CLOUDY    48  39  71 VRB5      30.07F
CLINTONVILLE   CLOUDY    48  41  76 S3        30.07F
OSHKOSH        CLOUDY    49  42  77 E6        30.05F
$$

WIZ032>034-041-042-053>061-302200-
SOUTHWEST WISCONSIN

CITY           SKY/WX    TMP DP  RH WIND       PRES   REMARKS
LA CROSSE      CLOUDY    57  44  62 E7        29.99F
SPARTA         PTSUNNY   51  41  68 E8        30.03F
VIROQUA        CLOUDY    52  43  70 E9        30.01F
BOSCOBEL       PTSUNNY   54  42  64 E9        30.01F
PRAIRIE DU CHI CLOUDY    56  44  63 E9        29.99F
PLATTEVILLE    PTSUNNY   54  44  69 E13       30.01F
$$

WIZ056-057-062-063-064-067-068-302200-
SOUTH CENTRAL WISCONSIN

CITY           SKY/WX    TMP DP  RH WIND       PRES   REMARKS
REEDSBURG      CLOUDY    47  42  80 E3        30.04S
BARABOO/DELLS  CLOUDY    48  40  74 E5        30.05S
LONE ROCK      NOT AVBL
MINERAL POINT  CLOUDY    52  43  71 E7        30.02F
MADISON        CLOUDY    50  42  74 E9        30.03F
MIDDLETON      CLOUDY    51  42  71 E6        30.04F
WATERTOWN      CLOUDY    51  43  74 CALM      30.04F
MONROE         PTSUNNY   50  43  76 NE8       30.02F
JANESVILLE     MOSUNNY   55  43  62 NE7       30.01F
$$

WIZ051-052-058>065-066-070>072-302200-
SOUTHEAST WISCONSIN

CITY           SKY/WX    TMP DP  RH WIND       PRES   REMARKS
MILWAUKEE      CLOUDY    52  45  77 N14G21    30.04F
WAUKESHA       CLOUDY    54  43  66 E8        30.03F
MILWAUKEE/TIMM MOSUNNY   54  41  62 NE10      30.04F
RACINE         CLOUDY    52  48  86 N14       30.05F FOG
BURLINGTON     CLOUDY    53  43  68 E8        30.03S
KENOSHA        CLOUDY    54  46  74 VRB6      30.04S
FOND DU LAC    CLOUDY    50  43  77 NE7       30.05F
SHEBOYGAN      CLOUDY    50  43  77 N6        30.05F
WEST BEND      CLOUDY    52  41  66 N7        30.04F
JUNEAU         CLOUDY    50  42  75 N5        30.05F
$$

LSZ147-162-302200-
LAKE SUPERIOR

STATION/POSITION TIME  TEMP    WIND        PRES    WAVE
                       AIR SEA DIR/SP/G            HT/PER
                 (UTC) (F)     (DEG/KT/KT) (MB)    (FT/S)
W MID LAKE BUOY  1950   46 50   70/ 10/ 12 1019.5F   2/ 5
DEVILS ISLAND    2000   46      80/ 15/ 19 1019.1F
SAXON HARBOR     2000   49      40/ 11/ 14 1017.9F
$$

LMZ867-665-643>646-302200-
LAKE MICHIGAN

STATION/POSITION TIME  TEMP    WIND        PRES    WAVE
                       AIR SEA DIR/SP/G            HT/PER
                 (UTC) (F)     (DEG/KT/KT) (MB)    (FT/S)
CHAMBERS ISLAND  2000   50     330/  8/ 11 1018.6S
S GREEN BAY BUOY 2000   48                 1019.4F
N MID LAKE BUOY  1950   50 58  360/  8/ 12 1018.1F   1/ 4
NORTHPORT PIER   2000   50     350/  7/ 10 1017.9F
SISTER BAY       2027           20/ 11/ 13   N/A
KEWAUNEE LAKESHO 2000   49      30/  6/  9 1017.4F
SHEBOYGAN LAKESH 2000   48 54  360/ 12/ 13 1018.6F
PORT WASHINGTON  2040   53      40/ 12/ 15 1017.9F
ATWATER BUOY     2000   52      10/ 16/ 19 1018.4F
MILWAUKEE LAKESH 2000   51      10/ 14/ 18   N/A
S MID LAKE BUOY  1950   54 62  360/ 16/ 19 1016.5F   4/ 7
KENOSHA   LAKESH 2000   52      20/ 16/ 18 1016.9F
$$

TC  - TEMPERATURE IN CELSIUS
VSB - VISIBILITY IN STATUTE MILES
WCI - WIND CHILL INDEX
HX  - HEAT INDEX



USA.gov is the U.S. government's official web portal to all federal, state and local government web resources and services.